Location: Unspecified
(0.0000°N, 0.0000°E)
Time: 09:36:58
(UTC+00:00)

Vanguard 2 Rocket - Pass Details

Date: 10 October 2022
Orbit: 555 x 3321 km, 32.9° (Epoch: 06 December)

Event Time Altitude Azimuth Distance (km) Brightness Sun altitude
Rises 15:13:44 0° 223° (SW) 5,346 11.4 38.0°
Reaches altitude 10° 15:16:52 10° 218° (SW) 4,665 11.2 37.2°
Maximum altitude 15:31:02 57° 142° (SE) 3,313 10.0 33.7°
Drops below altitude 10° 15:50:38 10° 69° (ENE) 6,268 10.7 28.9°
Sets 15:55:35 0° 65° (ENE) 7,218 11.0 27.6°
